Time,TemperatureF,DewpointF,PressureIn,WindDirection,WindDirectionDegrees,WindSpeedMPH,WindSpeedGustMPH,Humidity,HourlyPrecipIn,Conditions,Clouds,dailyrainin,SolarRadiationWatts/m^2,SoftwareType,DateUTC
2015-03-03 00:02:00,72.3,68.9,30.19,North,0,0.0,0.0,89,0.00,,,0.00,0.0,meteohub,2015-03-03 05:02:00,
2015-03-03 00:07:00,72.1,68.7,30.19,North,0,0.0,0.0,89,0.00,,,0.00,0.0,meteohub,2015-03-03 05:07:00,
2015-03-03 00:12:00,72.1,68.7,30.19,North,0,0.0,0.0,89,0.00,,,0.00,0.0,meteohub,2015-03-03 05:12:00,
2015-03-03 00:17:00,72.1,68.7,30.19,North,0,0.0,0.0,89,0.00,,,0.00,0.0,meteohub,2015-03-03 05:17:00,
2015-03-03 00:22:00,72.0,68.5,30.18,North,0,0.0,0.0,89,0.00,,,0.00,0.0,meteohub,2015-03-03 05:22:00,
2015-03-03 00:27:00,72.0,68.5,30.19,North,0,0.0,0.0,89,0.00,,,0.00,0.0,meteohub,2015-03-03 05:27:00,
2015-03-03 00:32:00,72.0,68.5,30.19,North,0,0.0,0.0,89,0.00,,,0.00,0.0,meteohub,2015-03-03 05:32:00,
2015-03-03 00:37:00,71.8,68.4,30.18,North,0,0.0,0.0,89,0.00,,,0.00,0.0,meteohub,2015-03-03 05:37:00,
2015-03-03 00:42:00,71.8,68.7,30.18,North,0,0.0,0.0,90,0.00,,,0.00,0.0,meteohub,2015-03-03 05:42:00,
2015-03-03 00:47:00,71.4,68.4,30.18,North,0,0.0,3.0,90,0.00,,,0.00,0.0,meteohub,2015-03-03 05:47:00,
2015-03-03 00:52:00,71.4,68.4,30.18,North,0,0.0,3.0,90,0.00,,,0.00,0.0,meteohub,2015-03-03 05:52:00,
2015-03-03 00:57:00,71.4,68.7,30.18,North,0,0.0,3.0,91,0.00,,,0.00,0.0,meteohub,2015-03-03 05:57:00,
2015-03-03 01:02:00,71.2,68.5,30.18,North,0,0.0,0.0,91,0.00,,,0.00,0.0,meteohub,2015-03-03 06:02:00,
2015-03-03 01:07:00,71.2,68.5,30.18,North,0,0.0,0.0,91,0.00,,,0.00,0.0,meteohub,2015-03-03 06:07:00,
2015-03-03 01:12:00,71.1,68.4,30.18,North,0,0.0,0.0,91,0.00,,,0.00,0.0,meteohub,2015-03-03 06:12:00,
2015-03-03 01:17:00,70.9,68.2,30.17,North,0,0.0,0.0,91,0.00,,,0.00,0.0,meteohub,2015-03-03 06:17:00,
2015-03-03 01:22:00,70.9,68.4,30.17,North,0,0.0,0.0,92,0.00,,,0.00,0.0,meteohub,2015-03-03 06:22:00,
2015-03-03 01:27:00,70.7,68.2,30.17,North,0,0.0,0.0,92,0.00,,,0.00,0.0,meteohub,2015-03-03 06:27:00,
2015-03-03 01:32:00,70.7,68.2,30.17,North,0,0.0,0.0,92,0.00,,,0.00,0.0,meteohub,2015-03-03 06:32:00,
2015-03-03 01:37:00,70.7,68.5,30.17,North,0,0.0,0.0,93,0.00,,,0.00,0.0,meteohub,2015-03-03 06:37:00,
2015-03-03 01:42:00,70.7,68.5,30.16,North,0,0.0,0.0,93,0.00,,,0.00,0.0,meteohub,2015-03-03 06:42:00,
2015-03-03 01:47:00,70.7,68.5,30.16,North,0,0.0,0.0,93,0.00,,,0.00,0.0,meteohub,2015-03-03 06:47:00,
2015-03-03 01:52:00,70.5,68.4,30.16,North,0,0.0,0.0,93,0.00,,,0.00,0.0,meteohub,2015-03-03 06:52:00,
2015-03-03 01:57:00,70.5,68.4,30.16,North,0,0.0,0.0,93,0.00,,,0.00,0.0,meteohub,2015-03-03 06:57:00,
2015-03-03 02:02:00,70.5,68.4,30.15,North,0,0.0,0.0,93,0.00,,,0.00,0.0,meteohub,2015-03-03 07:02:00,
2015-03-03 02:07:00,70.5,68.4,30.15,North,0,0.0,0.0,93,0.00,,,0.00,0.0,meteohub,2015-03-03 07:07:00,
2015-03-03 02:12:00,70.5,68.4,30.15,North,0,0.0,0.0,93,0.00,,,0.00,0.0,meteohub,2015-03-03 07:12:00,
2015-03-03 02:17:00,70.5,68.4,30.15,North,0,0.0,2.0,93,0.00,,,0.00,0.0,meteohub,2015-03-03 07:17:00,
2015-03-03 02:22:00,70.5,68.4,30.15,North,0,0.0,2.0,93,0.00,,,0.00,0.0,meteohub,2015-03-03 07:22:00,
2015-03-03 02:27:00,70.3,68.2,30.15,North,0,0.0,2.0,93,0.00,,,0.00,0.0,meteohub,2015-03-03 07:27:00,
2015-03-03 02:32:00,70.3,68.2,30.14,North,0,0.0,0.0,93,0.00,,,0.00,0.0,meteohub,2015-03-03 07:32:00,
2015-03-03 02:37:00,70.3,68.2,30.14,North,0,0.0,3.0,93,0.00,,,0.00,0.0,meteohub,2015-03-03 07:37:00,
2015-03-03 02:42:00,70.3,68.2,30.14,North,0,0.0,3.0,93,0.00,,,0.00,0.0,meteohub,2015-03-03 07:42:00,
2015-03-03 02:47:00,70.2,68.0,30.14,North,0,0.0,3.0,93,0.00,,,0.00,0.0,meteohub,2015-03-03 07:47:00,
2015-03-03 02:52:00,70.2,68.4,30.14,North,0,0.0,0.0,94,0.00,,,0.00,0.0,meteohub,2015-03-03 07:52:00,
2015-03-03 02:57:00,70.2,68.4,30.14,North,0,0.0,0.0,94,0.00,,,0.00,0.0,meteohub,2015-03-03 07:57:00,
2015-03-03 03:02:00,70.2,68.4,30.14,North,0,0.0,0.0,94,0.00,,,0.00,0.0,meteohub,2015-03-03 08:02:00,
2015-03-03 03:07:00,70.2,68.4,30.13,North,0,0.0,0.0,94,0.00,,,0.00,0.0,meteohub,2015-03-03 08:07:00,
2015-03-03 03:12:00,70.2,68.4,30.13,North,0,0.0,0.0,94,0.00,,,0.00,0.0,meteohub,2015-03-03 08:12:00,
2015-03-03 03:17:00,70.0,68.2,30.13,North,0,0.0,0.0,94,0.00,,,0.00,0.0,meteohub,2015-03-03 08:17:00,
2015-03-03 03:22:00,70.0,68.2,30.13,North,0,0.0,0.0,94,0.00,,,0.00,0.0,meteohub,2015-03-03 08:22:00,
2015-03-03 03:27:00,70.0,68.2,30.13,North,0,0.0,0.0,94,0.00,,,0.00,0.0,meteohub,2015-03-03 08:27:00,
2015-03-03 03:33:00,70.0,68.2,30.12,North,0,0.0,0.0,94,0.00,,,0.00,0.0,meteohub,2015-03-03 08:33:00,
2015-03-03 03:38:00,69.8,68.0,30.12,North,0,0.0,0.0,94,0.00,,,0.00,0.0,meteohub,2015-03-03 08:38:00,
2015-03-03 03:43:00,69.8,68.0,30.12,North,0,0.0,0.0,94,0.00,,,0.00,0.0,meteohub,2015-03-03 08:43:00,
2015-03-03 03:48:00,69.8,68.0,30.12,North,0,0.0,0.0,94,0.00,,,0.00,0.0,meteohub,2015-03-03 08:48:00,
2015-03-03 03:53:00,70.0,68.2,30.13,North,0,0.0,0.0,94,0.00,,,0.00,0.0,meteohub,2015-03-03 08:53:00,
2015-03-03 03:58:00,70.0,68.2,30.12,North,0,0.0,0.0,94,0.00,,,0.00,0.0,meteohub,2015-03-03 08:58:00,
2015-03-03 04:03:00,70.0,67.8,30.12,North,0,0.0,0.0,93,0.00,,,0.00,0.0,meteohub,2015-03-03 09:03:00,
2015-03-03 04:08:00,70.0,67.8,30.12,North,0,0.0,0.0,93,0.00,,,0.00,0.0,meteohub,2015-03-03 09:08:00,
2015-03-03 04:13:00,70.0,67.8,30.12,North,0,0.0,0.0,93,0.00,,,0.00,0.0,meteohub,2015-03-03 09:13:00,
2015-03-03 04:18:00,70.0,67.5,30.12,North,0,0.0,2.0,92,0.00,,,0.00,0.0,meteohub,2015-03-03 09:18:00,
2015-03-03 04:23:00,70.0,67.5,30.12,North,0,0.0,2.0,92,0.00,,,0.00,0.0,meteohub,2015-03-03 09:23:00,
2015-03-03 04:28:00,70.0,67.5,30.13,North,0,0.0,0.0,92,0.00,,,0.00,0.0,meteohub,2015-03-03 09:28:00,
2015-03-03 04:33:00,69.8,67.3,30.13,North,0,0.0,0.0,92,0.00,,,0.00,0.0,meteohub,2015-03-03 09:33:00,
2015-03-03 04:38:00,69.6,66.9,30.13,North,0,0.0,0.0,91,0.00,,,0.00,0.0,meteohub,2015-03-03 09:38:00,
2015-03-03 04:43:00,69.6,67.3,30.13,North,0,0.0,0.0,92,0.00,,,0.00,0.0,meteohub,2015-03-03 09:43:00,
2015-03-03 04:48:00,69.4,67.1,30.12,North,0,0.0,0.0,92,0.00,,,0.00,0.0,meteohub,2015-03-03 09:48:00,
2015-03-03 04:53:00,69.4,67.1,30.12,North,0,0.0,3.0,92,0.00,,,0.00,0.0,meteohub,2015-03-03 09:53:00,
2015-03-03 04:58:00,69.4,67.1,30.12,North,0,0.0,3.0,92,0.00,,,0.00,0.0,meteohub,2015-03-03 09:58:00,
2015-03-03 05:03:00,69.4,67.1,30.12,North,0,0.0,3.0,92,0.00,,,0.00,0.0,meteohub,2015-03-03 10:03:00,
2015-03-03 05:08:00,69.6,67.3,30.13,North,0,0.0,3.0,92,0.00,,,0.00,0.0,meteohub,2015-03-03 10:08:00,
2015-03-03 05:13:00,69.6,67.3,30.13,North,0,0.0,3.0,92,0.00,,,0.00,0.0,meteohub,2015-03-03 10:13:00,
2015-03-03 05:18:00,69.8,67.1,30.13,North,0,0.0,3.0,91,0.00,,,0.00,0.0,meteohub,2015-03-03 10:18:00,
2015-03-03 05:23:00,69.6,66.9,30.14,North,0,0.0,3.0,91,0.00,,,0.00,0.0,meteohub,2015-03-03 10:23:00,
2015-03-03 05:28:00,69.6,66.9,30.14,North,0,0.0,0.0,91,0.00,,,0.00,0.0,meteohub,2015-03-03 10:28:00,
2015-03-03 05:33:00,69.4,66.7,30.14,North,0,0.0,0.0,91,0.00,,,0.00,0.0,meteohub,2015-03-03 10:33:00,
2015-03-03 05:38:00,69.4,67.1,30.14,North,0,0.0,0.0,92,0.00,,,0.00,0.0,meteohub,2015-03-03 10:38:00,
2015-03-03 05:43:00,69.3,67.1,30.14,North,0,0.0,0.0,93,0.00,,,0.00,0.0,meteohub,2015-03-03 10:43:00,
2015-03-03 05:48:00,69.3,67.1,30.15,North,0,0.0,0.0,93,0.00,,,0.00,0.0,meteohub,2015-03-03 10:48:00,
2015-03-03 05:53:00,69.3,67.1,30.15,North,0,0.0,0.0,93,0.00,,,0.00,0.0,meteohub,2015-03-03 10:53:00,
2015-03-03 05:58:00,69.4,67.3,30.15,North,0,0.0,1.0,93,0.00,,,0.00,0.0,meteohub,2015-03-03 10:58:00,
2015-03-03 06:03:00,69.4,67.3,30.15,North,0,0.0,1.0,93,0.00,,,0.00,0.0,meteohub,2015-03-03 11:03:00,
2015-03-03 06:08:00,69.4,67.3,30.16,North,0,0.0,1.0,93,0.00,,,0.00,0.0,meteohub,2015-03-03 11:08:00,
2015-03-03 06:13:00,69.4,67.1,30.16,North,0,0.0,0.0,92,0.00,,,0.00,0.0,meteohub,2015-03-03 11:13:00,
2015-03-03 06:18:00,69.4,67.1,30.16,North,0,0.0,0.0,92,0.00,,,0.00,0.0,meteohub,2015-03-03 11:18:00,
2015-03-03 06:23:00,69.4,67.3,30.16,North,0,1.0,2.0,93,0.00,,,0.00,0.0,meteohub,2015-03-03 11:23:00,
2015-03-03 06:28:00,69.4,67.3,30.16,North,0,0.0,2.0,93,0.00,,,0.00,0.0,meteohub,2015-03-03 11:28:00,
2015-03-03 06:33:00,69.4,67.1,30.17,North,0,0.0,2.0,92,0.00,,,0.00,0.0,meteohub,2015-03-03 11:33:00,
2015-03-03 06:38:00,69.6,67.3,30.16,North,0,0.0,2.0,92,0.00,,,0.00,0.0,meteohub,2015-03-03 11:38:00,
2015-03-03 06:43:00,69.6,67.5,30.17,North,0,0.0,2.0,93,0.00,,,0.00,0.0,meteohub,2015-03-03 11:43:00,
2015-03-03 06:48:00,69.8,67.6,30.17,North,0,0.0,3.0,93,0.00,,,0.00,0.0,meteohub,2015-03-03 11:48:00,
2015-03-03 06:53:00,69.8,67.6,30.17,North,0,0.0,3.0,93,0.00,,,0.00,7.0,meteohub,2015-03-03 11:53:00,
2015-03-03 06:58:00,70.0,67.8,30.17,North,0,2.0,3.0,93,0.00,,,0.00,12.0,meteohub,2015-03-03 11:58:00,
2015-03-03 07:03:00,70.2,68.0,30.17,North,0,0.0,1.0,93,0.00,,,0.00,18.0,meteohub,2015-03-03 12:03:00,
2015-03-03 07:08:00,70.3,68.2,30.17,North,0,0.0,3.0,93,0.00,,,0.00,16.0,meteohub,2015-03-03 12:08:00,
2015-03-03 07:13:00,70.3,67.8,30.17,North,0,0.0,4.0,92,0.00,,,0.00,28.0,meteohub,2015-03-03 12:13:00,
2015-03-03 07:18:00,70.5,68.0,30.18,North,0,0.0,4.0,92,0.00,,,0.00,26.0,meteohub,2015-03-03 12:18:00,
2015-03-03 07:23:00,70.9,68.4,30.17,North,0,4.0,5.0,92,0.00,,,0.00,39.0,meteohub,2015-03-03 12:23:00,
2015-03-03 07:28:00,71.2,68.5,30.18,North,0,0.0,5.0,91,0.00,,,0.00,72.0,meteohub,2015-03-03 12:28:00,
2015-03-03 07:33:00,71.4,68.7,30.18,North,0,0.0,6.0,91,0.00,,,0.00,100.0,meteohub,2015-03-03 12:33:00,
2015-03-03 07:38:00,72.0,68.9,30.18,North,0,0.0,6.0,90,0.00,,,0.00,53.0,meteohub,2015-03-03 12:38:00,
2015-03-03 07:43:00,72.3,68.9,30.19,North,0,2.0,0.0,89,0.00,,,0.00,128.0,meteohub,2015-03-03 12:43:00,
2015-03-03 07:48:00,72.9,69.1,30.19,North,0,0.0,3.0,88,0.00,,,0.00,149.0,meteohub,2015-03-03 12:48:00,
2015-03-03 07:53:00,73.4,68.9,30.18,North,0,2.0,3.0,86,0.00,,,0.00,163.0,meteohub,2015-03-03 12:53:00,
2015-03-03 07:58:00,73.9,68.7,30.18,North,0,2.0,4.0,84,0.00,,,0.00,179.0,meteohub,2015-03-03 12:58:00,
2015-03-03 08:03:00,74.7,69.1,30.19,North,0,8.0,8.0,83,0.00,,,0.00,188.0,meteohub,2015-03-03 13:03:00,
2015-03-03 08:08:00,75.2,68.9,30.19,North,0,3.0,7.0,81,0.00,,,0.00,155.0,meteohub,2015-03-03 13:08:00,
2015-03-03 08:13:00,75.2,68.9,30.19,North,0,7.0,8.0,81,0.00,,,0.00,65.0,meteohub,2015-03-03 13:13:00,
2015-03-03 08:18:00,75.4,69.1,30.19,North,0,3.0,9.0,81,0.00,,,0.00,58.0,meteohub,2015-03-03 13:18:00,
2015-03-03 08:23:00,75.4,69.1,30.19,North,0,5.0,9.0,81,0.00,,,0.00,276.0,meteohub,2015-03-03 13:23:00,
2015-03-03 08:28:00,75.7,69.4,30.19,North,0,7.0,9.0,81,0.00,,,0.00,279.0,meteohub,2015-03-03 13:28:00,
2015-03-03 08:33:00,76.3,69.6,30.19,North,0,7.0,10.0,80,0.00,,,0.00,306.0,meteohub,2015-03-03 13:33:00,
2015-03-03 08:39:00,76.8,70.2,30.19,North,0,5.0,10.0,80,0.00,,,0.00,348.0,meteohub,2015-03-03 13:39:00,
2015-03-03 08:44:00,77.2,69.8,30.20,North,0,6.0,10.0,78,0.00,,,0.00,109.0,meteohub,2015-03-03 13:44:00,
2015-03-03 08:49:00,76.8,69.4,30.19,North,0,6.0,10.0,78,0.00,,,0.00,380.0,meteohub,2015-03-03 13:49:00,
2015-03-03 08:54:00,76.8,69.1,30.19,North,0,9.0,11.0,77,0.00,,,0.00,120.0,meteohub,2015-03-03 13:54:00,
2015-03-03 08:59:00,76.8,69.8,30.20,North,0,9.0,13.0,79,0.00,,,0.00,162.0,meteohub,2015-03-03 13:59:00,
2015-03-03 09:04:00,77.2,69.8,30.20,North,0,13.0,15.0,78,0.00,,,0.00,431.0,meteohub,2015-03-03 14:04:00,
2015-03-03 09:09:00,77.7,70.3,30.20,North,0,11.0,15.0,78,0.00,,,0.00,396.0,meteohub,2015-03-03 14:09:00,
2015-03-03 09:14:00,77.4,70.0,30.20,North,0,3.0,15.0,78,0.00,,,0.00,121.0,meteohub,2015-03-03 14:14:00,
2015-03-03 09:19:00,76.8,69.4,30.21,North,0,11.0,14.0,78,0.00,,,0.00,134.0,meteohub,2015-03-03 14:19:00,
2015-03-03 09:24:00,76.8,69.4,30.20,North,0,7.0,14.0,78,0.00,,,0.00,132.0,meteohub,2015-03-03 14:24:00,
2015-03-03 09:29:00,76.8,69.4,30.20,North,0,7.0,14.0,78,0.00,,,0.00,478.0,meteohub,2015-03-03 14:29:00,
2015-03-03 09:34:00,76.8,68.7,30.20,North,0,7.0,14.0,76,0.00,,,0.00,239.0,meteohub,2015-03-03 14:34:00,
2015-03-03 09:39:00,77.4,69.3,30.21,North,0,12.0,16.0,76,0.00,,,0.00,545.0,meteohub,2015-03-03 14:39:00,
2015-03-03 09:44:00,77.5,69.8,30.21,North,0,1.0,17.0,77,0.00,,,0.00,608.0,meteohub,2015-03-03 14:44:00,
2015-03-03 09:49:00,77.7,69.1,30.21,North,0,7.0,17.0,75,0.00,,,0.00,151.0,meteohub,2015-03-03 14:49:00,